Simultaneous Nadir Overpasses (SNOs) Predictions

Prediction of SNOs between TERRA and METOP-C Satellite Orbit:

Table of predicted SNOs for the next 14.0 days since TLE Epoch: 2/12/2022
Index Date (TERRA) Time (TERRA) Lat,Lon (TERRA) SZA (TERRA ) Date (METOP-C) Time (METOP-C) Lat,Lon (METOP-C) SZA (METOP-C ) Distance(km) Time Diff (sec)
1 02/14/2022 17:40:43 -81.22, 137.74 84.04 02/14/2022 17:40:36 -81.21, 137.57 84.06 3.01 7
2 02/14/2022 18:30:09 81.22, -54.56 95.97 02/14/2022 18:31:14 81.22, -54.42 96.01 2.41 65
3 02/17/2022 12:25:27 81.19, 36.12 94.95 02/17/2022 12:24:17 81.20, 36.30 94.95 3.13 70
4 02/17/2022 13:14:53 -81.21,-155.94 85.02 02/17/2022 13:14:58 -81.21,-156.01 85.03 1.32 5
5 02/20/2022 07:59:36 81.20, 102.69 93.98 02/20/2022 07:58:39 81.20, 102.63 93.95 1.10 57
6 02/20/2022 08:49:02 -81.22, -89.34 85.99 02/20/2022 08:49:19 -81.22, -89.25 85.98 1.60 17
7 02/23/2022 03:33:44 81.20, 169.16 92.97 02/23/2022 03:32:59 81.20, 169.31 92.97 2.66 45
8 02/23/2022 04:23:10 -81.22, -22.85 87.00 02/23/2022 04:23:40 -81.21, -22.92 87.00 1.41 30
9 02/25/2022 23:07:53 81.20,-124.48 91.93 02/25/2022 23:07:21 81.20,-124.42 91.93 1.03 32



Historial Predications of SNOs between TERRA and METOP-C
